[Iaude] MPEC T41: 2023 TX [a=1.35,e=0.32,i=0.8,H=29.6]

mpec at marsden.cfa.harvard.edu mpec at marsden.cfa.harvard.edu
Fri Oct 6 01:45:22 EDT 2023


M.P.E.C. 2023-T41                               Issued 2023 October 6, 05:44 UT

     The Minor Planet Electronic Circulars contain information on unusual
         minor planets, routine data on comets and natural satellites,
         and occasional editorial announcements.  They are published
    on behalf of Division F of the International Astronomical Union by the
          Minor Planet Center, Smithsonian Astrophysical Observatory,
                          Cambridge, MA 02138, U.S.A.
			  
             Prepared using the Tamkin Foundation Computer Network

                              MPC at CFA.HARVARD.EDU
            URL https://www.minorplanetcenter.net/    ISSN 1523-6714

                                    2023 TX                                     


Observations:
     K23T00X*1C2023 10 05.26042000 32 26.387+04 16 43.36         19.90GVET041G96
     K23T00X 1C2023 10 05.26601500 32 34.022+04 17 18.17         19.54GVET041G96
     K23T00X 1C2023 10 05.27160800 32 41.777+04 17 53.23         19.42GVET041G96
     K23T00X 1C2023 10 05.27719900 32 49.463+04 18 27.97         19.63GVET041G96
     K23T00X KC2023 10 05.35902 00 34 37.82 +04 25 41.0          19.7 GVET041H36
     K23T00X KC2023 10 05.37474 00 35 01.95 +04 27 22.1          20.1 GVET041H36
     K23T00X mC2023 10 05.38829600 35 30.048+04 30 11.38         20.40GVET041I52
     K23T00X mC2023 10 05.38848900 35 30.304+04 30 13.00         19.96GVET041I52
     K23T00X mC2023 10 05.38868300 35 30.599+04 30 13.75         19.90GVET041I52
     K23T00X mC2023 10 05.38887600 35 30.919+04 30 15.44         19.91GVET041I52
     K23T00X KC2023 10 05.90232000 54 56.11 +05 35 37.3          19.0 GXET041958
     K23T00X KC2023 10 05.90712600 55 07.70 +05 36 23.0          18.9 GXET041958
     K23T00X KC2023 10 05.91194700 55 19.36 +05 37 11.7          19.1 GXET041958
     K23T00X KB2023 10 06.02020100 59 47.89 +05 54 59.5                VET041I93
     K23T00X KB2023 10 06.02176200 59 51.89 +05 55 15.6          20.3 GVET041I93
     K23T00X KB2023 10 06.02327900 59 55.84 +05 55 30.4          20.0 GVET041I93

Observer details:
958 Observatoire de Dax.  Observers P. Dupouy, J. B. de Vanssay.  Measurer P.
    Dupouy.  0.43-m f/2.7 Reflector + CCD.
G96 Mt. Lemmon Survey.  Observer G. J. Leonard.  Measurers E. C. Beshore, D.
    Fay, J. B. Fazekas, D. C. Fuls, A. R. Gibbs, A. D. Grauer, H. Groeller, J.
    K. Hogan, R. A. Kowalski, S. M. Larson, G. J. Leonard, D. Rankin, R. L.
    Seaman, F. C. Shelly, K. W. Wierzchos.  1.5-m reflector + 10K CCD.
H36 Sandlot Observatory, Scranton.  Observer G. Hug.  .57 meter f/4.2 + CCD.
I52 Steward Observatory, Mt. Lemmon Station.  Observer D. Rankin.  Measurers
    E. C. Beshore, D. Fay, J. B. Fazekas, D. C. Fuls, A. R. Gibbs, A. D.
    Grauer, H. Groeller, J. K. Hogan, R. A. Kowalski, S. M. Larson, G. J.
    Leonard, D. Rankin, R. L. Seaman, F. C. Shelly, K. W. Wierzchos.  1.0-m
    prime focus + CCD.
I93 St Pardon de Conques.  Observer F. Losse.  0.40-m f/3.7 reflector + CMO.

Orbital elements:
2023 TX                                                  Earth MOID = 0.0007 AU
Epoch 2023 Sept. 13.0 TT = JDT 2460200.5                Bell                    
M 318.67243              (2000.0)            P               Q                  
n   0.62919246     Peri.  231.83122     +0.44131353     -0.89734808             
a   1.3487984      Node   191.98212     +0.82770956     +0.40833800             
e   0.3211266      Incl.    0.81877     +0.34661111     +0.16741120             
P   1.57           H   29.65          G   0.15           U   7                  
Residuals in seconds of arc
231005 G96  0.1-  0.2-    231005 I52  0.4+  0.3-    231005 958  0.6+  0.9+
231005 G96  0.6-  0.1-    231005 I52  0.3-  0.0     231006 I93  0.6+  0.5+
231005 G96  0.5+  0.3+    231005 I52  0.3-  0.4-    231006 I93  0.2-  0.6+
231005 G96  0.3+  0.3+    231005 I52  0.1+  0.0     231006 I93  0.1-  0.2-
231005 H36  0.4+  0.0     231005 958  0.9-  0.3-
231005 H36  2.9-  1.7+    231005 958  0.2-  1.1-

Ephemeris:
2023 TX                  a,e,i = 1.35, 0.32, 1                   q = 0.9157
Date    TT    R. A. (2000) Decl.     Delta      r    Elong.  Phase     V
2023 09 06    23 24 25.9 -00 22 31   0.1387  1.1453   170.6     8.3    26.2
...
2023 09 21    23 28 26.8 +00 08 00   0.06928 1.0732   174.3     5.3    24.4
...
2023 09 29    23 38 35.8 +00 50 55   0.03609 1.0375   169.7     9.9    23.2
...
2023 10 05    00 25 45.5 +03 57 45   0.01230 1.0125   176.2     3.8    20.5
2023 10 06    00 58 52.9 +06 02 01   0.0085821.0085   176.3     3.7    19.7
2023 10 07    02 17 44.9 +10 19 26   0.0053151.0046   157.3    22.6    19.4
...
2023 10 13    10 39 10.9 +03 03 28   0.02070 0.9820    39.2   140.1    28.1
...
2023 10 21    11 06 55.7 +01 12 33   0.05268 0.9559    39.9   138.1    29.8
...
2023 11 05    11 25 56.7 -00 13 01   0.1153  0.9215    49.8   124.7    30.0

M. P. C. Staff               (C) Copyright 2023 MPC           M.P.E.C. 2023-T41





More information about the Iaude mailing list